Regional Weather Roundup
Issued by NWS

Home | Current Version | Previous Version | Text Only | Print | Product List | Glossary Off
Versions: 1 2 3 4 5 6 7 8 9 10 11 12 13 14 15 16 17 18 19 20 21 22 23 24 25 26 27 28 29 30 31 32 33 34 35 36 37 38 39 40 41 42 43 44 45 46 47 48 49 50

000
ASUS43 KMPX 301801
RWRMN
WEATHER ROUNDUP FOR MINNESOTA
NATIONAL WEATHER SERVICE TWIN CITIES/CHANHASSEN MN
100 PM CDT SAT APR 30 2016


NOTE: "FAIR" INDICATES FEW OR NO CLOUDS BELOW 12,000 FEET WITH NO
SIGNIFICANT WEATHER AND/OR OBSTRUCTIONS TO VISIBILITY. N/A MEANS
CURRENT SKY AND/OR WEATHER CONDITIONS ARE NOT AVAILABLE.

MNZ060>063-068>070-301900-
   Twin Cities Metro

CITY           SKY/WX    TMP DP  RH WIND       PRES   REMARKS
TWIN CITIES    CLOUDY    55  32  41 E16G28    30.06F
6HR MIN TEMP:  43; 6HR MAX TEMP:  56;

ST PAUL        CLOUDY    55  34  45 E10G23    30.08F
CRYSTAL        CLOUDY    58  33  39 NE16G23   30.07S
BLAINE         PTSUNNY   59  36  41 NE16G24   30.07
EDEN PRAIRIE   CLOUDY    56  32  40 E14G26    30.05F
6HR MIN TEMP:  43; 6HR MAX TEMP:  56;

SOUTH ST PAUL  CLOUDY    55  33  41 NE12G17   30.06F
LAKE ELMO      FAIR      55  36  47 NE16G23   30.08F
$$
MNZ001>005-007-008-013>017-022>024-027-028-301900-
   Northwest Minnesota

CITY           SKY/WX    TMP DP  RH WIND       PRES   REMARKS
BEMIDJI        SUNNY     56  26  31 E14G24    30.19F
HALLOCK        SUNNY     59  25  27 NE18G26   30.27F
ROSEAU         SUNNY     54  36  50 E17G24    30.29F
WARROAD        SUNNY     52  32  46 NE15      30.31F
THIEF RVR FALL SUNNY     55  25  30 NE21G31   30.24F
CROOKSTON      SUNNY     57  27  30 E24G30    30.23F
FOSSTON        SUNNY     55  27  33 NE18G29   30.21F
DETROIT LAKES  SUNNY     55  28  35 E14G25    30.17S
MOORHEAD       CLOUDY    61  30  31 E20G25    30.17F
PARK RAPIDS    SUNNY     55  27  34 NE17G28   30.17S
MAHNOMEN       FAIR      56  30  36 E23       30.17F
$$
MNZ006-009>011-018-025>026-301900-
   North Central Minnesota

CITY           SKY/WX    TMP DP  RH WIND       PRES   REMARKS
BAUDETTE       SUNNY     55  25  31 NE17G26   30.28F
FLAG ISLAND    SUNNY     50  25  37 NE15G22   30.31F
INTL FALLS     SUNNY     52  27  38 NE12G23   30.27F
6HR MIN TEMP:  37; 6HR MAX TEMP:  53;

WASKISH        SUNNY     55  28  35 NE16G24   30.24F
BIG FORK       SUNNY     55  27  33 E12G23    30.22F
LONGVILLE      SUNNY     55  27  33 N14G22    30.18F
GRAND RAPIDS   SUNNY     54  27  35 NE14      30.21F
CRANE LAKE     PTSUNNY   52  27  37 NE7       30.28F
ORR            SUNNY     55  21  26 NE8       30.22F
COOK           MOSUNNY   54  28  37 NE10G17   30.23F
WALKER         FAIR      53  30  41 E9G16     30.19F
$$
MNZ012-019>021-037-301900-
   Northeast Minnesota

CITY           SKY/WX    TMP DP  RH WIND       PRES   REMARKS
DULUTH         SUNNY     49  29  46 E18G28    30.22F
6HR MIN TEMP:  38; 6HR MAX TEMP:  49;

ELY            MOSUNNY   50  25  37 NE13G20   30.23F
HIBBING        PTSUNNY   52  27  38 NE15      30.20F
EVELETH        MOSUNNY   52  27  37 NE15      30.21F
DULUTH HARBOR  SUNNY     41  36  81 NE24      30.25R
TWO HARBORS    SUNNY     48  37  66 E15G24    30.24F
SILVER BAY     PTSUNNY   46  32  57 E14G22    30.25F
GRAND MARAIS     N/A     41  34  76 NE9       30.28F
G MARAIS ARPRT PTSUNNY   48  23  37 NE18      30.25F
$$
MNZ029>031-032-039>041-046>048-054>057-064-301900-
   West Central Minnesota

CITY           SKY/WX    TMP DP  RH WIND       PRES   REMARKS
FERGUS FALLS   CLOUDY    55  32  41 E10G21    30.13R
WHEATON        PTSUNNY   57  37  47 NE17G29   30.13S
MORRIS         CLOUDY    54  37  54 E17       30.10S
ALEXANDRIA     CLOUDY    53  33  46 E21G28    30.12S
ELBOW LAKE     FAIR      54  33  45 NE17G26   30.13R
WADENA         CLOUDY    55  30  38 E12G24    30.13S
GLENWOOD       CLOUDY    54  36  50 NE21      30.10F
APPLETON       CLOUDY    55  36  47 E20G26    30.08F
BENSON         PTSUNNY   55  34  44 E18G24    30.09F
ORTONVILLE     CLOUDY    52  37  58 E16G25    30.09F
MADISON        CLOUDY    52  36  54 E21G29    30.07F
WILLMAR        FAIR      54  36  50 E18G30    30.08F
$$
MNZ033>034-036-042>043-049>051-058-059-301900-
   Central Minnesota

CITY           SKY/WX    TMP DP  RH WIND       PRES   REMARKS
ST CLOUD       CLOUDY    55  32  41 E15G26    30.10F
6HR MIN TEMP:  38; 6HR MAX TEMP:  56;

SAUK CENTRE    FAIR      53  35  50 NE20G26   30.11S
PAYNESVILLE    CLOUDY    55  32  40 NE17G25   30.09F
AITKIN         MOSUNNY   61  27  27 NE16G24   30.15S
PINE RIVER     SUNNY     55  32  41 NE13G25   30.18F
BRAINERD       PTSUNNY   56  32  40 NE16G23   30.16R
STAPLES        PTSUNNY   55  28  35 E13G21    30.14S
LONG PRAIRIE   FAIR      52  34  50 NE20G26   30.13S
LITTLE FALLS   CLOUDY    52  32  46 NE8G21    30.13F
LITCHFIELD     CLOUDY    55  34  44 NE17G23   30.08S
BUFFALO        CLOUDY    55  32  41 NE18G28   30.09S
MAPLE LAKE     CLOUDY    55  36  48 NE17G25   30.09S
HUTCHINSON     SUNNY     54  38  56 NE20G25   30.06F
$$
MNZ037-044-045-052-053-301900-
   East Central Minnesota

CITY           SKY/WX    TMP DP  RH WIND       PRES   REMARKS
PRINCETON        N/A     59  34  38 NE18G26   30.10F
MORA           PTSUNNY   54  32  43 NE12G18   30.14F
CAMBRIDGE      CLOUDY    59  39  47 N17G23    30.07F
RUSH CITY      PTSUNNY   57  35  43 E14G22    30.11F
MOOSE LAKE     MOSUNNY   50  30  46 NE14G24   30.18R
HINCKLEY       FAIR      55  36  47 NE13      30.14F
CLOQUET        SUNNY     48  23  37 E22G33    30.21S
MCGREGOR       SUNNY     54  32  43 E15G29    30.18S
$$
MNZ071>073-080-081-089-090-097-098-301900-
   Southwest Minnesota

CITY           SKY/WX    TMP DP  RH WIND       PRES   REMARKS
MONTEVIDEO     CLOUDY    52  37  58 E24       30.08F
GRANITE FALLS  CLOUDY    53  40  63 NE18      30.06F
CANBY          CLOUDY    52  41  65 NE21G26   30.05F
MARSHALL       CLOUDY    48  38  68 E21       30.01F
REDWOOD FALLS  CLOUDY    52  35  52 E15G29    30.03F
OLIVIA         CLOUDY    52  36  54 E16G25    30.04F
PIPESTONE      CLOUDY    43  39  87 E21G28    29.95F
WINDOM         RAIN      45  41  87 E18G25    29.97F
WORTHINGTON    RAIN      43  41  93 NE26G33   29.93S FOG
JACKSON        LGT SNOW  43  41  93 NE21      29.96R
TRACY          CLOUDY    47  41  78 NE15      30.00F
SLAYTON        LGT RAIN  43  41  93 NE15G25   29.98F
$$
MNZ065>067-074>077-082>085-091>093-301900-
   South Central Minnesota

CITY           SKY/WX    TMP DP  RH WIND       PRES   REMARKS
MANKATO        CLOUDY    52  34  50 E17G26    30.00F
NEW ULM        CLOUDY    52  34  50 E16G23    30.00F
ST JAMES       LGT RAIN  43  36  75 NE16      29.99F
FAIRMONT       CLOUDY    45  36  70 NE24      29.95S
GLENCOE        CLOUDY    55  37  51 NE12G22   30.04F
FARIBAULT      CLOUDY    52  36  54 NE16G22   30.03F
OWATONNA       CLOUDY    50  36  57 NE15G21   30.00F
WASECA         CLOUDY    48  36  61 NE16G23   30.00F
ALBERT LEA     CLOUDY    43  43 100 NE17G24   29.96F
$$
MNZ078>079-086>088-094>096-301900-
   Southeast Minnesota

CITY           SKY/WX    TMP DP  RH WIND       PRES   REMARKS
ROCHESTER      LGT RAIN  45  37  73 E20       30.00F
6HR MIN TEMP:  41; 6HR MAX TEMP:  47; 6HR PCP:  0.01;

RED WING       PTSUNNY   55  32  41 E21G26    30.03F
STANTON        CLOUDY    55  36  50 NE21G28   30.02F
DODGE CENTER   CLOUDY    48  36  61 E16G26    30.00S
WINONA         CLOUDY    54  36  50 E7        30.03F
AUSTIN         RAIN      43  37  81 NE20      29.97S
PRESTON        RAIN      42  37  85 NE9       29.99F
$$
ABBREVIATIONS USED IN REMARKS
   TC - TEMPERATURES IN CELSIUS
  WCI - WIND CHILL INDEX
   HX - HEAT INDEX
  VSB - VISIBILITY
$$




USA.gov is the U.S. government's official web portal to all federal, state and local government web resources and services.